This demonstration page uses our WeatherBlox Daily Observations layout. Learn more.

Left ArrowRight Arrow

53.62937, 11.41316

Hourly Observations for November 5, 2019

Temp ( °F °C ) Dew Point ( °F °C ) Humidity (%) Winds ( mph kmh ) Pressure ( in mb ) Visibility ( mi km ) Precip ( " mm )
6:50 am 06:50 Mostly Cloudy with Mist and Fog 45 7 45 7 100 100 VRB 1 2 29.32 993 1 2 N/A
7:20 am 07:20 Partly Cloudy with Mist and Fog 45 7 45 7 100 100 VRB 1 2 29.32 993 2 3 N/A
7:50 am 07:50 Partly Cloudy with Mist and Fog 45 7 45 7 100 100 VRB 1 2 29.32 993 2 3 N/A
8:20 am 08:20 Mostly Cloudy with Mist and Fog 46 8 45 7 93 93 VRB 2 4 29.35 994 1 2 N/A
8:50 am 08:50 Mostly Cloudy with Mist and Fog 46 8 45 7 93 93 W 2 4 29.35 994 1 2 N/A
9:20 am 09:20 Mostly Cloudy with Mist and Fog 46 8 46 8 100 100 W 1 2 29.35 994 2 3 N/A
9:50 am 09:50 Mostly Cloudy with Mist and Fog 46 8 46 8 100 100 VRB 2 4 29.35 994 3 5 N/A
10:20 am 10:20 Mostly Cloudy 48 9 48 9 100 100 VRB 2 4 29.35 994 4 7 N/A
10:50 am 10:50 Mostly Cloudy 50 10 50 10 100 100 VRB 1 2 29.35 994 30 48 N/A
11:20 am 11:20 Mostly Cloudy 50 10 50 10 100 100 VRB 2 4 29.35 994 30 48 N/A
11:50 am 11:50 Mostly Cloudy 50 10 48 9 94 94 VRB 1 2 29.35 994 30 48 N/A
12:20 pm 12:20 Mostly Cloudy 50 10 48 9 94 94 VRB 2 4 29.35 994 30 48 N/A
12:50 pm 12:50 Mostly Cloudy 50 10 48 9 94 94 VRB 2 4 29.38 995 30 48 N/A
1:20 pm 13:20 Mostly Cloudy 50 10 48 9 94 94 VRB 2 4 29.38 995 30 48 N/A
1:50 pm 13:50 Mostly Cloudy with Drizzle 50 10 46 8 88 88 VRB 3 6 29.38 995 30 48 N/A
2:20 pm 14:20 Mostly Cloudy 48 9 46 8 94 94 N 6 9 29.38 995 30 48 N/A
2:50 pm 14:50 Mostly Cloudy 48 9 46 8 94 94 N 6 9 29.38 995 30 48 N/A
3:20 pm 15:20 Mostly Cloudy 48 9 46 8 94 94 N 6 9 29.38 995 30 48 N/A
3:50 pm 15:50 Mostly Cloudy 48 9 46 8 94 94 N 7 11 29.38 995 30 48 N/A
4:20 pm 16:20 Mostly Cloudy 48 9 46 8 94 94 NNE 8 13 29.38 995 30 48 N/A
4:50 pm 16:50 Mostly Cloudy 48 9 46 8 94 94 NNE 8 13 29.38 995 30 48 N/A
5:20 pm 17:20 Mostly Cloudy with Drizzle 48 9 46 8 94 94 NNE 7 11 29.41 996 30 48 N/A
5:50 pm 17:50 Mostly Cloudy with Light Rain 48 9 46 8 94 94 NNE 8 13 29.41 996 30 48 N/A
6:20 pm 18:20 Mostly Cloudy with Light Rain 48 9 46 8 94 94 NNE 8 13 29.41 996 30 48 N/A
6:50 pm 18:50 Mostly Cloudy with Light Rain 46 8 45 7 93 93 NNE 7 11 29.41 996 30 48 N/A
7:20 pm 19:20 Mostly Cloudy with Light Rain 46 8 45 7 93 93 NE 8 13 29.41 996 30 48 N/A
7:50 pm 19:50 Mostly Cloudy with Light Rain 46 8 45 7 93 93 NNE 7 11 29.41 996 30 48 N/A

Powered by AerisWeather